{"data":{"norad_id":39483,"epoch":"2026-09-20T04:24:33.619680Z","epoch_age_seconds":64567,"freshness":"FRESH","line1":"1 39483U 13076A   26263.18372245 -.00000028  00000+0 -27457-3 0  9994","line2":"2 39483  82.4806 109.5085 0018505 249.4178 110.4916 12.42907914577694","mean_motion":12.42907914,"eccentricity":0.0018505,"inclination_deg":82.4806,"raan_deg":109.5085,"arg_perigee_deg":249.4178,"mean_anomaly_deg":110.4916,"bstar":-0.00027457,"rev_number":57769,"period_min":115.85733615338,"perigee_km":1479.7322713643,"apogee_km":1508.8681615024,"semimajor_km":7872.4372164334,"source":"CELESTRAK","updated_at":"2026-09-20T09:00:13.961460Z"}}